{"data":{"norad_id":68475,"epoch":"2026-05-24T20:36:50.454720Z","epoch_age_seconds":77293,"freshness":"FRESH","line1":"1 68475U 26067BM  26144.85891730  .00006798  00000+0  68270-3 0  9994","line2":"2 68475  97.7501 103.3860 0005440 113.8941 246.2848 14.91586305  7724","mean_motion":14.91586305,"eccentricity":0.000544,"inclination_deg":97.7501,"raan_deg":103.386,"arg_perigee_deg":113.8941,"mean_anomaly_deg":246.2848,"bstar":0.0006827,"rev_number":772,"period_min":96.541513901872,"perigee_km":589.19645099785,"apogee_km":596.78103580667,"semimajor_km":6971.1257434023,"source":"CELESTRAK","updated_at":"2026-05-25T13:38:07.849994Z"}}